Time,TemperatureF,DewpointF,PressureIn,WindDirection,WindDirectionDegrees,WindSpeedMPH,WindSpeedGustMPH,Humidity,HourlyPrecipIn,Conditions,Clouds,dailyrainin,SoftwareType,DateUTC
2013-10-20 00:09:00,41.7,39.0,30.16,SE,146,0.0,-999.0,89,-99.99,,,0.00,weatherlink.com 1.10,2013-10-20 07:09:00,
2013-10-20 00:24:00,41.1,38.0,30.16,SE,146,0.0,-999.0,89,-99.99,,,0.00,weatherlink.com 1.10,2013-10-20 07:24:00,
2013-10-20 00:40:00,40.6,38.0,30.17,SE,146,0.0,-999.0,89,-99.99,,,0.00,weatherlink.com 1.10,2013-10-20 07:40:00,
2013-10-20 00:55:00,40.3,38.0,30.17,SE,146,0.0,-999.0,90,-99.99,,,0.00,weatherlink.com 1.10,2013-10-20 07:55:00,
2013-10-20 01:10:00,39.9,37.0,30.17,SE,146,0.0,-999.0,90,-99.99,,,0.00,weatherlink.com 1.10,2013-10-20 08:10:00,
2013-10-20 01:25:00,39.7,37.0,30.18,SE,146,0.0,-999.0,90,-99.99,,,0.00,weatherlink.com 1.10,2013-10-20 08:25:00,
2013-10-20 01:40:00,39.6,37.0,30.18,SE,146,0.0,-999.0,90,-99.99,,,0.00,weatherlink.com 1.10,2013-10-20 08:40:00,
2013-10-20 01:55:00,39.1,37.0,30.19,SE,146,0.0,-999.0,90,-99.99,,,0.00,weatherlink.com 1.10,2013-10-20 08:55:00,
2013-10-20 02:10:00,39.1,37.0,30.19,SE,146,0.0,-999.0,91,-99.99,,,0.00,weatherlink.com 1.10,2013-10-20 09:10:00,
2013-10-20 02:25:00,38.7,36.0,30.19,SE,146,0.0,-999.0,90,-99.99,,,0.00,weatherlink.com 1.10,2013-10-20 09:25:00,
2013-10-20 02:40:00,38.5,36.0,30.19,SE,146,0.0,-999.0,91,-99.99,,,0.00,weatherlink.com 1.10,2013-10-20 09:40:00,
2013-10-20 02:55:00,38.2,36.0,30.19,SE,146,0.0,-999.0,91,-99.99,,,0.00,weatherlink.com 1.10,2013-10-20 09:55:00,
2013-10-20 03:10:00,38.0,36.0,30.19,SE,146,0.0,-999.0,91,-99.99,,,0.01,weatherlink.com 1.10,2013-10-20 10:10:00,
2013-10-20 03:25:00,37.6,35.0,30.20,SE,146,0.0,-999.0,91,-99.99,,,0.01,weatherlink.com 1.10,2013-10-20 10:25:00,
2013-10-20 03:40:00,37.5,35.0,30.19,SE,146,0.0,-999.0,91,-99.99,,,0.01,weatherlink.com 1.10,2013-10-20 10:40:00,
2013-10-20 03:55:00,37.3,35.0,30.19,SE,146,0.0,-999.0,91,-99.99,,,0.01,weatherlink.com 1.10,2013-10-20 10:55:00,
2013-10-20 04:10:00,36.8,35.0,30.19,SE,146,0.0,-999.0,91,-99.99,,,0.01,weatherlink.com 1.10,2013-10-20 11:10:00,
2013-10-20 04:25:00,36.6,34.0,30.20,SE,146,0.0,-999.0,91,-99.99,,,0.01,weatherlink.com 1.10,2013-10-20 11:25:00,
2013-10-20 04:40:00,36.4,34.0,30.20,SE,146,0.0,-999.0,91,-99.99,,,0.01,weatherlink.com 1.10,2013-10-20 11:40:00,
2013-10-20 04:55:00,36.1,34.0,30.20,SE,146,0.0,-999.0,91,-99.99,,,0.01,weatherlink.com 1.10,2013-10-20 11:55:00,
2013-10-20 05:10:00,35.9,34.0,30.20,SE,146,0.0,-999.0,91,-99.99,,,0.01,weatherlink.com 1.10,2013-10-20 12:10:00,
2013-10-20 05:25:00,36.0,34.0,30.20,SE,146,0.0,-999.0,91,-99.99,,,0.01,weatherlink.com 1.10,2013-10-20 12:25:00,
2013-10-20 05:40:00,35.7,34.0,30.21,SE,146,0.0,-999.0,92,-99.99,,,0.01,weatherlink.com 1.10,2013-10-20 12:40:00,
2013-10-20 05:55:00,35.3,33.0,30.21,SE,146,0.0,-999.0,91,-99.99,,,0.01,weatherlink.com 1.10,2013-10-20 12:55:00,
2013-10-20 06:10:00,35.2,33.0,30.21,SE,146,0.0,-999.0,92,-99.99,,,0.01,weatherlink.com 1.10,2013-10-20 13:10:00,
2013-10-20 06:25:00,35.0,33.0,30.21,SE,146,0.0,-999.0,92,-99.99,,,0.01,weatherlink.com 1.10,2013-10-20 13:25:00,
2013-10-20 06:40:00,34.8,33.0,30.22,SE,146,0.0,-999.0,92,-99.99,,,0.01,weatherlink.com 1.10,2013-10-20 13:40:00,
2013-10-20 06:55:00,34.7,33.0,30.22,SE,146,0.0,-999.0,92,-99.99,,,0.01,weatherlink.com 1.10,2013-10-20 13:55:00,
2013-10-20 07:10:00,34.6,33.0,30.22,SE,146,0.0,-999.0,92,-99.99,,,0.01,weatherlink.com 1.10,2013-10-20 14:10:00,
2013-10-20 07:25:00,34.6,33.0,30.22,SE,146,0.0,-999.0,92,-99.99,,,0.01,weatherlink.com 1.10,2013-10-20 14:25:00,
2013-10-20 07:40:00,34.6,33.0,30.23,SE,146,0.0,-999.0,92,-99.99,,,0.01,weatherlink.com 1.10,2013-10-20 14:40:00,
2013-10-20 07:55:00,34.9,33.0,30.23,SE,146,0.0,-999.0,92,-99.99,,,0.01,weatherlink.com 1.10,2013-10-20 14:55:00,
2013-10-20 08:10:00,35.0,33.0,30.24,SE,146,0.0,-999.0,92,-99.99,,,0.01,weatherlink.com 1.10,2013-10-20 15:10:00,
2013-10-20 08:25:00,35.1,33.0,30.24,SE,146,0.0,-999.0,92,-99.99,,,0.01,weatherlink.com 1.10,2013-10-20 15:25:00,
2013-10-20 08:40:00,35.2,33.0,30.24,SE,146,0.0,-999.0,92,-99.99,,,0.01,weatherlink.com 1.10,2013-10-20 15:40:00,
2013-10-20 08:55:00,36.9,35.0,30.24,SE,146,0.0,-999.0,92,-99.99,,,0.01,weatherlink.com 1.10,2013-10-20 15:55:00,
2013-10-20 09:10:00,38.2,36.0,30.24,SE,146,0.0,-999.0,91,-99.99,,,0.01,weatherlink.com 1.10,2013-10-20 16:10:00,
2013-10-20 09:25:00,39.3,37.0,30.24,SE,146,0.0,-999.0,90,-99.99,,,0.01,weatherlink.com 1.10,2013-10-20 16:25:00,
2013-10-20 09:40:00,41.6,38.0,30.23,SE,146,0.0,-999.0,86,-99.99,,,0.01,weatherlink.com 1.10,2013-10-20 16:40:00,
2013-10-20 09:55:00,42.9,38.0,30.23,SE,146,4.0,-999.0,83,-99.99,,,0.01,weatherlink.com 1.10,2013-10-20 16:55:00,
2013-10-20 10:10:00,45.4,39.0,30.23,SE,146,0.0,-999.0,79,-99.99,,,0.01,weatherlink.com 1.10,2013-10-20 17:10:00,
2013-10-20 10:25:00,46.6,40.0,30.22,SSE,148,0.0,-999.0,78,-99.99,,,0.01,weatherlink.com 1.10,2013-10-20 17:25:00,
2013-10-20 10:40:00,47.6,40.0,30.22,SSE,148,0.0,-999.0,75,-99.99,,,0.01,weatherlink.com 1.10,2013-10-20 17:40:00,
2013-10-20 10:55:00,49.2,41.0,30.22,SSE,148,2.0,-999.0,73,-99.99,,,0.01,weatherlink.com 1.10,2013-10-20 17:55:00,
2013-10-20 11:11:00,50.7,40.0,30.21,SSE,148,0.0,-999.0,68,-99.99,,,0.01,weatherlink.com 1.10,2013-10-20 18:11:00,
2013-10-20 11:26:00,52.1,41.0,30.20,SSE,148,0.0,-999.0,66,-99.99,,,0.01,weatherlink.com 1.10,2013-10-20 18:26:00,
2013-10-20 11:41:00,52.6,40.0,30.20,SSE,148,0.0,-999.0,63,-99.99,,,0.01,weatherlink.com 1.10,2013-10-20 18:41:00,
2013-10-20 11:56:00,54.5,41.0,30.20,SSE,148,1.0,-999.0,61,-99.99,,,0.01,weatherlink.com 1.10,2013-10-20 18:56:00,
2013-10-20 12:11:00,55.2,42.0,30.19,SSE,148,1.0,-999.0,61,-99.99,,,0.01,weatherlink.com 1.10,2013-10-20 19:11:00,
2013-10-20 12:26:00,56.4,43.0,30.18,SSE,148,1.0,-999.0,61,-99.99,,,0.01,weatherlink.com 1.10,2013-10-20 19:26:00,
2013-10-20 12:41:00,56.6,41.0,30.18,SSE,148,0.0,-999.0,57,-99.99,,,0.01,weatherlink.com 1.10,2013-10-20 19:41:00,
2013-10-20 12:56:00,58.1,42.0,30.17,SSE,148,1.0,-999.0,55,-99.99,,,0.01,weatherlink.com 1.10,2013-10-20 19:56:00,
2013-10-20 13:11:00,59.1,42.0,30.16,SSE,148,0.0,-999.0,53,-99.99,,,0.01,weatherlink.com 1.10,2013-10-20 20:11:00,
2013-10-20 13:26:00,60.1,44.0,30.15,SSE,148,1.0,-999.0,55,-99.99,,,0.01,weatherlink.com 1.10,2013-10-20 20:26:00,
2013-10-20 13:41:00,61.2,43.0,30.14,SSE,148,1.0,-999.0,51,-99.99,,,0.01,weatherlink.com 1.10,2013-10-20 20:41:00,
2013-10-20 13:56:00,61.6,43.0,30.13,SSE,148,0.0,-999.0,51,-99.99,,,0.01,weatherlink.com 1.10,2013-10-20 20:56:00,
2013-10-20 14:11:00,62.1,44.0,30.13,SSE,148,1.0,-999.0,51,-99.99,,,0.01,weatherlink.com 1.10,2013-10-20 21:11:00,
2013-10-20 14:26:00,62.3,44.0,30.13,SSE,148,1.0,-999.0,51,-99.99,,,0.01,weatherlink.com 1.10,2013-10-20 21:26:00,
2013-10-20 14:41:00,62.9,45.0,30.13,SSE,148,1.0,-999.0,52,-99.99,,,0.01,weatherlink.com 1.10,2013-10-20 21:41:00,
2013-10-20 14:56:00,62.8,44.0,30.12,SSE,148,2.0,-999.0,51,-99.99,,,0.01,weatherlink.com 1.10,2013-10-20 21:56:00,
2013-10-20 15:11:00,63.1,44.0,30.12,SSE,148,0.0,-999.0,50,-99.99,,,0.01,weatherlink.com 1.10,2013-10-20 22:11:00,
2013-10-20 15:26:00,62.8,44.0,30.12,SSE,148,2.0,-999.0,50,-99.99,,,0.01,weatherlink.com 1.10,2013-10-20 22:26:00,
2013-10-20 15:41:00,63.2,45.0,30.12,SSE,148,0.0,-999.0,52,-99.99,,,0.01,weatherlink.com 1.10,2013-10-20 22:41:00,
2013-10-20 15:56:00,61.5,45.0,30.12,SSE,148,0.0,-999.0,56,-99.99,,,0.01,weatherlink.com 1.10,2013-10-20 22:56:00,
2013-10-20 16:11:00,60.0,45.0,30.11,SSE,148,0.0,-999.0,58,-99.99,,,0.01,weatherlink.com 1.10,2013-10-20 23:11:00,
2013-10-20 16:26:00,58.6,45.0,30.11,SSE,148,0.0,-999.0,62,-99.99,,,0.01,weatherlink.com 1.10,2013-10-20 23:26:00,
2013-10-20 16:41:00,57.1,45.0,30.11,SSE,148,0.0,-999.0,65,-99.99,,,0.01,weatherlink.com 1.10,2013-10-20 23:41:00,
2013-10-20 16:56:00,56.2,45.0,30.11,SSE,148,0.0,-999.0,66,-99.99,,,0.01,weatherlink.com 1.10,2013-10-20 23:56:00,
2013-10-20 17:11:00,55.0,45.0,30.11,SSE,148,0.0,-999.0,68,-99.99,,,0.01,weatherlink.com 1.10,2013-10-21 00:11:00,
2013-10-20 17:26:00,54.2,45.0,30.12,SSE,148,0.0,-999.0,70,-99.99,,,0.01,weatherlink.com 1.10,2013-10-21 00:26:00,
2013-10-20 17:41:00,53.8,45.0,30.12,SSE,148,0.0,-999.0,73,-99.99,,,0.01,weatherlink.com 1.10,2013-10-21 00:41:00,
2013-10-20 17:56:00,53.4,45.0,30.12,SSE,148,0.0,-999.0,73,-99.99,,,0.01,weatherlink.com 1.10,2013-10-21 00:56:00,
2013-10-20 18:11:00,52.6,45.0,30.13,SSE,148,0.0,-999.0,75,-99.99,,,0.01,weatherlink.com 1.10,2013-10-21 01:11:00,
2013-10-20 18:26:00,51.8,44.0,30.13,SSE,148,0.0,-999.0,76,-99.99,,,0.01,weatherlink.com 1.10,2013-10-21 01:26:00,
2013-10-20 18:41:00,50.7,44.0,30.14,SSE,148,0.0,-999.0,79,-99.99,,,0.01,weatherlink.com 1.10,2013-10-21 01:41:00,
2013-10-20 18:56:00,50.0,44.0,30.14,SSE,148,0.0,-999.0,80,-99.99,,,0.01,weatherlink.com 1.10,2013-10-21 01:56:00,
2013-10-20 19:26:00,48.7,43.0,30.15,SSE,148,0.0,-999.0,82,-99.99,,,0.01,weatherlink.com 1.10,2013-10-21 02:26:00,
2013-10-20 19:41:00,48.2,43.0,30.15,SSE,148,0.0,-999.0,82,-99.99,,,0.00,weatherlink.com 1.10,2013-10-21 02:41:00,
2013-10-20 19:56:00,47.7,43.0,30.16,SSE,148,0.0,-999.0,83,-99.99,,,0.00,weatherlink.com 1.10,2013-10-21 02:56:00,
2013-10-20 20:11:00,46.9,42.0,30.17,SSE,148,0.0,-999.0,84,-99.99,,,0.00,weatherlink.com 1.10,2013-10-21 03:11:00,
2013-10-20 20:26:00,46.4,42.0,30.17,SSE,148,0.0,-999.0,85,-99.99,,,0.00,weatherlink.com 1.10,2013-10-21 03:26:00,
2013-10-20 20:41:00,46.0,42.0,30.18,SSE,148,0.0,-999.0,85,-99.99,,,0.00,weatherlink.com 1.10,2013-10-21 03:41:00,
2013-10-20 20:56:00,45.6,42.0,30.18,SSE,148,0.0,-999.0,86,-99.99,,,0.00,weatherlink.com 1.10,2013-10-21 03:56:00,
2013-10-20 21:11:00,45.1,41.0,30.19,SSE,148,0.0,-999.0,86,-99.99,,,0.00,weatherlink.com 1.10,2013-10-21 04:11:00,
2013-10-20 21:27:00,44.8,41.0,30.19,SSE,148,0.0,-999.0,87,-99.99,,,0.00,weatherlink.com 1.10,2013-10-21 04:27:00,
2013-10-20 21:42:00,44.5,41.0,30.20,SSE,148,0.0,-999.0,87,-99.99,,,0.00,weatherlink.com 1.10,2013-10-21 04:42:00,
2013-10-20 21:57:00,44.2,41.0,30.20,SSE,148,0.0,-999.0,87,-99.99,,,0.00,weatherlink.com 1.10,2013-10-21 04:57:00,
2013-10-20 22:12:00,43.7,40.0,30.20,SSE,148,0.0,-999.0,87,-99.99,,,0.00,weatherlink.com 1.10,2013-10-21 05:12:00,
2013-10-20 22:27:00,43.2,40.0,30.20,SSE,148,0.0,-999.0,88,-99.99,,,0.00,weatherlink.com 1.10,2013-10-21 05:27:00,
2013-10-20 22:42:00,42.9,40.0,30.21,SSE,148,0.0,-999.0,88,-99.99,,,0.00,weatherlink.com 1.10,2013-10-21 05:42:00,
2013-10-20 22:57:00,42.6,40.0,30.21,SSE,148,0.0,-999.0,89,-99.99,,,0.00,weatherlink.com 1.10,2013-10-21 05:57:00,
2013-10-20 23:12:00,42.4,39.0,30.21,SSE,148,0.0,-999.0,89,-99.99,,,0.00,weatherlink.com 1.10,2013-10-21 06:12:00,
2013-10-20 23:27:00,42.0,39.0,30.21,SSE,148,0.0,-999.0,89,-99.99,,,0.00,weatherlink.com 1.10,2013-10-21 06:27:00,
2013-10-20 23:42:00,41.8,39.0,30.21,SSE,148,0.0,-999.0,89,-99.99,,,0.00,weatherlink.com 1.10,2013-10-21 06:42:00,
2013-10-20 23:57:00,41.4,38.0,30.22,SSE,148,0.0,-999.0,89,-99.99,,,0.00,weatherlink.com 1.10,2013-10-21 06:57:00,